CALSPHERE 1 1 00900U 64063C 26256.28164153 .00000442 00000+0 43948-3 0 9999 2 00900 90.2175 73.8105 0026861 29.7468 143.9857 13.76702687 83542 CALSPHERE 2 1 00902U 64063E 26256.27760595 .00000023 00000+0 21280-4 0 9993 2 00902 90.2289 77.8671 0017782 337.4485 147.4081 13.52906277868175 LCS 1 1 01361U 65034C 26256.22437393 .00000019 00000+0 14216-2 0 9998 2 01361 32.1456 327.9993 0011229 74.2526 285.9210 9.89310710218609 TEMPSAT 1 1 01512U 65065E 26255.92245750 .00000028 00000+0 37790-4 0 9994 2 01512 90.0055 212.6100 0069973 3.9551 63.3230 13.33598290971747 CALSPHERE 4A 1 01520U 65065H 26256.28311124 .00000085 00000+0 14505-3 0 9993 2 01520 89.8906 121.6009 0068460 213.9513 215.4987 13.36290832974471 OPS 5712 (P/L 160) 1 02826U 67053A 26256.21877651 .00005087 00000+0 70247-3 0 9999 2 02826 69.9169 182.3485 0004096 272.6600 87.4079 14.78699373 79247 OPS 5712 (P/L 153) 1 02874U 67053H 26256.13076730 -.00000008 00000+0 32208-4 0 9997 2 02874 69.9727 286.8048 0004541 75.1716 284.9893 13.96838959 19071 RIGIDSPHERE 2 (LCS 4) 1 05398U 71067E 26256.22280854 .00000421 00000+0 13104-3 0 9996 2 05398 87.6216 314.3762 0057679 301.8106 57.7484 14.37954827886531 COSMOS 2493 (SKRL-756 1) 1 39490U 13078A 26256.20213229 .00002400 00000+0 17836-3 0 9999 2 39490 82.4155 175.0624 0011687 312.4085 47.6150 15.02549471691178 COSMOS 2494 (SKRL-756 2) 1 39491U 13078B 26256.23960425 .00002244 00000+0 15465-3 0 9992 2 39491 82.4154 164.0463 0014451 265.6486 94.3090 15.05318758692058